[[{"header":{"parameterUnit":"m.s-1","parameterCategory":2,"la1":30.2992,"la2":30.254,"lo1":-89.0895,"lo2":-89.0443,"dy":0.0025,"dx":0.0025,"nx":19,"ny":19,"refTime":"2026-03-13T21:00:00:Z","depth":"0","parameterNumber":2,"parameterNumberName":"U-component_of_CURRENTS"},"data":[0,0,0,0.2755,0.2756,0.2784,0.2784,0.2824,0.2824,0,0,0,0,0,0,0,0,0,0,0,0.2739,0.274,0.2755,0.2756,0.2784,0.2784,0.2824,0.2824,0,0,0,0,0,0,0,0,0,0,0,0.2739,0.274,0.274,0.2756,0.2784,0.2784,0.2824,0.2799,0,0,0,0,0,0,0,0,0,0,0.277,0.2759,0.274,0.274,0.2756,0.2784,0.2784,0.2798,0.2801,0.2814,0,0.282,0,0.283,0.2828,0.2828,0,0,0,0.2748,0.2757,0.2767,0.274,0.2756,0.2784,0.2769,0.28,0.2803,0.2818,0.2821,0.2823,0.283,0.2828,0.2828,0.2904,0.2904,0,0,0.2747,0.2743,0.2765,0.2769,0.2767,0.2768,0.277,0.2801,0.2805,0.2821,0.2824,0.2831,0.2828,0.2829,0.2903,0.2904,0,0,0,0.2747,0.2742,0.275,0.2767,0.2776,0.2769,0.2772,0.2804,0.2807,0.2824,0.2831,0.2829,0.2829,0.2903,0.2904,0.2936,0,0,0,0.2746,0.2743,0.275,0.2747,0.2775,0.279,0.2773,0.2805,0.2809,0.2831,0.2829,0.283,0.2902,0.2903,0.2934,0.2977,0,0,0,0.2738,0.2742,0.2746,0.2747,0.2764,0.279,0.2795,0.2806,0.2814,0.2828,0.283,0.2902,0.2903,0.2932,0.2973,0.3026,0,0,0,0.273,0.2735,0.2746,0.2759,0.2764,0.2798,0.2795,0.2817,0.2831,0.2829,0.2902,0.2904,0.2931,0.2971,0.3024,0.3015,0.3027,0,0,0.2731,0.2735,0.2743,0.2754,0.2785,0.2793,0.2836,0.2848,0.2853,0.289,0.2892,0.2934,0.2973,0.3026,0.3077,0.3087,0,0,0,0.274,0.2745,0.2757,0.2779,0.2807,0.2849,0.2858,0.2882,0.2919,0.2868,0.2947,0.2972,0.3003,0.2992,0.3001,0.2977,0.2908,0.2908,0.2908,0.2731,0.275,0.2762,0.279,0.2824,0.2887,0.293,0.2967,0.2949,0.2978,0.3006,0.3083,0.3071,0.3077,0.3052,0.2999,0.3,0.3,0.3,0.2719,0.2718,0.2759,0.2774,0.2838,0.2884,0.2998,0.3019,0.3101,0.3063,0.3091,0.3037,0.3089,0.3058,0.3002,0.3002,0.3001,0.3001,0.3001,0.2693,0.2693,0.2703,0.2736,0.2805,0.2893,0.2997,0.309,0.3148,0.3188,0.3178,0.3177,0.3145,0.3193,0.3194,0.3194,0.3195,0.3195,0.3195,0.2652,0.2664,0.2657,0.2704,0.273,0.2837,0.3007,0.3085,0.3207,0.3244,0.3244,0.3175,0.3143,0.313,0.3202,0.3201,0.32,0.3199,0.3199,0.2615,0.2616,0.2606,0.2614,0.2672,0.2714,0.2903,0.3087,0.3199,0.3265,0.3276,0.3273,0.3272,0.3264,0.3254,0.3355,0.3355,0.3355,0.3355,0.2582,0.2585,0.2543,0.2535,0.2574,0.2657,0.2713,0.2906,0.3167,0.3261,0.3327,0.3258,0.3253,0.3247,0.3239,0.3227,0.3319,0.3319,0.3319,0.2556,0.2551,0.2496,0.2479,0.2507,0.2552,0.2551,0.2664,0.3065,0.3315,0.3301,0.3302,0.3195,0.3189,0.3169,0.3161,0.3137,0,0]},{"header":{"parameterUnit":"m.s-1","parameterCategory":2,"la1":30.2992,"la2":30.254,"lo1":-89.0895,"lo2":-89.0443,"dy":0.0025,"dx":0.0025,"nx":19,"ny":19,"refTime":"2026-03-13T21:00:00:Z","depth":"0","parameterNumber":3,"parameterNumberName":"V-component_of_CURRENTS"},"data":[0,0,0,0.0235,0.0234,0.0194,0.0194,0.0123,0.0123,0,0,0,0,0,0,0,0,0,0,0,0.0247,0.0247,0.0235,0.0234,0.0195,0.0194,0.0123,0.0123,0,0,0,0,0,0,0,0,0,0,0,0.0247,0.0247,0.0247,0.0234,0.0195,0.0194,0.0123,0.0156,0,0,0,0,0,0,0,0,0,0,0.0196,0.0214,0.0247,0.0247,0.0234,0.0195,0.0194,0.0157,0.0154,0.0139,0,0.014,0,0.0134,0.0118,0.0118,0,0,0,0.0223,0.0217,0.0209,0.0247,0.0234,0.0195,0.0209,0.0155,0.0151,0.0134,0.0139,0.0136,0.0133,0.0118,0.0118,0.0123,0.0123,0,0,0.0225,0.0234,0.0212,0.0207,0.0232,0.0211,0.0208,0.0153,0.015,0.0138,0.0135,0.0132,0.0118,0.0117,0.0122,0.0123,0,0,0,0.0239,0.0236,0.0229,0.021,0.0207,0.021,0.0207,0.0152,0.0151,0.0134,0.0131,0.0117,0.0116,0.0122,0.0122,0.0237,0,0,0,0.024,0.0244,0.023,0.0234,0.0208,0.0182,0.0208,0.0155,0.0149,0.0132,0.0117,0.0116,0.0121,0.0122,0.0232,0.0298,0,0,0,0.0248,0.0245,0.0244,0.0235,0.0223,0.0183,0.0178,0.0153,0.0148,0.0118,0.0116,0.0121,0.0122,0.0228,0.029,0.035,0,0,0,0.0252,0.0281,0.0244,0.0278,0.0224,0.0245,0.0178,0.0175,0.0158,0.0117,0.0121,0.0122,0.0227,0.0286,0.0345,0.0455,0.0485,0,0,0.0298,0.0286,0.0309,0.0277,0.0325,0.0249,0.0292,0.0232,0.017,0.0134,0.0134,0.0234,0.029,0.0349,0.0526,0.0555,0,0,0,0.0332,0.0351,0.0359,0.0374,0.0365,0.0371,0.0305,0.0277,0.0243,0.0167,0.0227,0.0259,0.0292,0.0348,0.0371,0.0263,0.0128,0.0128,0.0128,0.0402,0.0408,0.046,0.0467,0.0473,0.045,0.0449,0.0396,0.0318,0.0319,0.0346,0.0464,0.0525,0.0543,0.0431,0.0331,0.0331,0.0332,0.0332,0.0494,0.0532,0.0538,0.0588,0.0586,0.061,0.0583,0.054,0.0529,0.0441,0.0468,0.046,0.0575,0.0446,0.0339,0.0338,0.0337,0.0336,0.0336,0.0545,0.0568,0.0592,0.0664,0.0728,0.0728,0.0816,0.0755,0.0653,0.0675,0.0709,0.0708,0.0598,0.0682,0.0683,0.0683,0.0684,0.0684,0.0685,0.0585,0.0616,0.0688,0.076,0.0827,0.0929,0.0953,0.0964,0.0933,0.0856,0.0856,0.0638,0.0571,0.0562,0.0694,0.0692,0.0691,0.069,0.0689,0.0659,0.0668,0.0786,0.0859,0.1037,0.1213,0.1219,0.1279,0.123,0.1244,0.0927,0.0941,0.0915,0.0896,0.0895,0.1105,0.1105,0.1105,0.1105,0.0704,0.0719,0.0887,0.1035,0.1216,0.1353,0.1569,0.1587,0.1348,0.1191,0.1034,0.0959,0.0947,0.0914,0.0895,0.0889,0.1093,0.1092,0.1092,0.0762,0.0809,0.0942,0.1088,0.1302,0.1518,0.1755,0.1855,0.1437,0.1072,0.0864,0.0865,0.0726,0.0715,0.0635,0.0616,0.0594,0,0]}],[{"header":{"parameterUnit":"m.s-1","parameterCategory":2,"la1":30.2992,"la2":30.254,"lo1":-89.0895,"lo2":-89.0443,"dy":0.0025,"dx":0.0025,"nx":19,"ny":19,"refTime":"2026-03-13T21:00:00:Z","depth":"2","parameterNumber":2,"parameterNumberName":"U-component_of_CURRENTS"},"data":[0,0,0,0.235,0.2351,0.243,0.243,0.2506,0.2507,0,0,0,0,0,0,0,0,0,0,0,0.232,0.2321,0.2349,0.2352,0.243,0.243,0.2506,0.2507,0,0,0,0,0,0,0,0,0,0,0,0.232,0.2321,0.2321,0.2352,0.243,0.243,0.2506,0.2451,0,0,0,0,0,0,0,0,0,0,0.2378,0.2355,0.232,0.2321,0.2353,0.243,0.243,0.2449,0.2455,0.2466,0,0.2484,0,0.2501,0.2512,0.2512,0,0,0,0.2345,0.235,0.2375,0.2322,0.2353,0.2429,0.2393,0.2452,0.2459,0.2473,0.2485,0.2488,0.2503,0.2512,0.2513,0.2603,0.2604,0,0,0.2341,0.233,0.237,0.2379,0.2381,0.239,0.2395,0.2456,0.2464,0.2485,0.249,0.2504,0.2513,0.2513,0.2603,0.2603,0,0,0,0.2333,0.2327,0.235,0.2375,0.2394,0.2393,0.2398,0.2461,0.247,0.2491,0.2505,0.2513,0.2514,0.2603,0.2603,0.2634,0,0,0,0.233,0.2323,0.2348,0.2342,0.2393,0.2432,0.2402,0.2466,0.2473,0.2504,0.2513,0.2515,0.2602,0.2603,0.2633,0.2672,0,0,0,0.2315,0.2322,0.2334,0.2342,0.2379,0.2432,0.2444,0.2468,0.2482,0.2512,0.2515,0.2602,0.2603,0.2631,0.2668,0.2715,0,0,0,0.2297,0.2312,0.2333,0.236,0.2378,0.2435,0.2444,0.2486,0.2513,0.2514,0.2602,0.2603,0.263,0.2666,0.2712,0.2658,0.2665,0,0,0.2302,0.2313,0.2329,0.235,0.2399,0.2423,0.2482,0.2518,0.2532,0.2578,0.2581,0.2633,0.2668,0.2714,0.2715,0.2721,0,0,0,0.2321,0.2334,0.2353,0.239,0.2434,0.249,0.2522,0.2552,0.2606,0.2555,0.2645,0.2667,0.2695,0.2656,0.2661,0.2608,0.2608,0.2608,0.2608,0.2303,0.2335,0.2362,0.2409,0.2456,0.2537,0.259,0.2638,0.2633,0.2666,0.2699,0.277,0.2728,0.2732,0.2694,0.2694,0.2694,0.2695,0.2695,0.2297,0.2304,0.2364,0.24,0.2476,0.2538,0.2659,0.2689,0.278,0.2751,0.2776,0.27,0.2739,0.2697,0.2697,0.2696,0.2696,0.2696,0.2696,0.2263,0.2268,0.23,0.2361,0.2447,0.2551,0.266,0.2759,0.2824,0.2864,0.2825,0.2823,0.2801,0.2871,0.2872,0.2872,0.2872,0.2873,0.2873,0.2201,0.2234,0.2251,0.2327,0.2369,0.2489,0.2672,0.2751,0.2855,0.2882,0.2881,0.283,0.2825,0.2812,0.2879,0.2878,0.2877,0.2876,0.2876,0.2149,0.2168,0.2187,0.2217,0.2311,0.2356,0.2551,0.2711,0.2822,0.2863,0.2889,0.2886,0.2879,0.2874,0.2863,0.2939,0.2939,0.2939,0.2939,0.2102,0.2118,0.2119,0.2141,0.2196,0.2291,0.2328,0.2459,0.2666,0.2722,0.2731,0.2645,0.2649,0.2623,0.2623,0.2605,0.2615,0.2614,0.2613,0.2065,0.2078,0.2051,0.2079,0.2126,0.218,0.2147,0.2126,0.2317,0.2594,0.2614,0.2929,0.2825,0.2822,0.2798,0.2793,0.2769,0,0]},{"header":{"parameterUnit":"m.s-1","parameterCategory":2,"la1":30.2992,"la2":30.254,"lo1":-89.0895,"lo2":-89.0443,"dy":0.0025,"dx":0.0025,"nx":19,"ny":19,"refTime":"2026-03-13T21:00:00:Z","depth":"2","parameterNumber":3,"parameterNumberName":"V-component_of_CURRENTS"},"data":[0,0,0,0.0175,0.0174,0.0136,0.0136,0.0072,0.0071,0,0,0,0,0,0,0,0,0,0,0,0.0187,0.0187,0.0175,0.0174,0.0136,0.0136,0.0072,0.0071,0,0,0,0,0,0,0,0,0,0,0,0.0187,0.0187,0.0187,0.0174,0.0136,0.0136,0.0072,0.0102,0,0,0,0,0,0,0,0,0,0,0.014,0.0156,0.0187,0.0187,0.0174,0.0136,0.0136,0.0103,0.01,0.0088,0,0.0088,0,0.0083,0.0068,0.0067,0,0,0,0.0164,0.0159,0.0152,0.0187,0.0174,0.0136,0.015,0.0102,0.0098,0.0083,0.0087,0.0085,0.0082,0.0067,0.0067,0.0069,0.0069,0,0,0.0166,0.0174,0.0155,0.015,0.0172,0.0152,0.0149,0.0099,0.0097,0.0087,0.0084,0.0081,0.0067,0.0066,0.0069,0.0069,0,0,0,0.0179,0.0175,0.0169,0.0152,0.0149,0.0151,0.0148,0.0099,0.0098,0.0083,0.008,0.0067,0.0066,0.0068,0.0069,0.0168,0,0,0,0.018,0.0184,0.0171,0.0174,0.0151,0.0126,0.0149,0.0101,0.0095,0.008,0.0066,0.0065,0.0068,0.0068,0.0164,0.0224,0,0,0,0.0187,0.0184,0.0183,0.0175,0.0164,0.0126,0.0122,0.01,0.0094,0.0067,0.0065,0.0067,0.0068,0.0161,0.0217,0.0254,0,0,0,0.0191,0.0214,0.0184,0.0211,0.0164,0.0181,0.0122,0.0118,0.0103,0.0066,0.0068,0.0069,0.016,0.0213,0.025,0.0309,0.0331,0,0,0.0228,0.0218,0.0238,0.0211,0.0252,0.0185,0.0221,0.0167,0.0112,0.008,0.008,0.0166,0.0217,0.0253,0.0369,0.0389,0,0,0,0.0256,0.0273,0.028,0.0293,0.0285,0.029,0.0232,0.0205,0.0173,0.0109,0.0159,0.0188,0.0207,0.0235,0.0251,0.0074,0.0073,0.0073,0.0073,0.0312,0.0319,0.0364,0.0373,0.0379,0.0358,0.0353,0.0305,0.0239,0.0238,0.0263,0.0354,0.0384,0.0397,0.0247,0.0247,0.0248,0.0248,0.0248,0.039,0.0422,0.0432,0.0476,0.0476,0.0497,0.0469,0.043,0.0414,0.0344,0.0357,0.0332,0.0422,0.0256,0.0255,0.0254,0.0253,0.0252,0.0252,0.0432,0.0452,0.0476,0.0543,0.0599,0.0599,0.0669,0.0616,0.0521,0.0536,0.0532,0.0531,0.0418,0.0534,0.0534,0.0535,0.0535,0.0536,0.0536,0.0463,0.0493,0.0557,0.0624,0.0684,0.0771,0.0789,0.0788,0.0736,0.0658,0.0657,0.045,0.044,0.0433,0.0543,0.0541,0.0541,0.054,0.0539,0.052,0.0532,0.0636,0.0702,0.086,0.1,0.1002,0.1014,0.0962,0.0947,0.0711,0.0704,0.0676,0.0662,0.0659,0.082,0.082,0.082,0.082,0.0553,0.0569,0.0716,0.0846,0.1003,0.1113,0.1252,0.1209,0.1049,0.0916,0.0912,0.0862,0.085,0.0826,0.0807,0.0805,0.1004,0.1005,0.1005,0.0596,0.0639,0.0752,0.0884,0.1071,0.1238,0.1376,0.1332,0.1077,0.1009,0.091,0.0839,0.0751,0.0737,0.0681,0.066,0.0647,0,0]}],[{"header":{"parameterUnit":"m.s-1","parameterCategory":2,"la1":30.2992,"la2":30.254,"lo1":-89.0895,"lo2":-89.0443,"dy":0.0025,"dx":0.0025,"nx":19,"ny":19,"refTime":"2026-03-13T21:00:00:Z","depth":"4","parameterNumber":2,"parameterNumberName":"U-component_of_CURRENTS"},"data":[0,0,0,0.1591,0.1594,0.1767,0.1768,0.1907,0.1908,0,0,0,0,0,0,0,0,0,0,0,0.1537,0.1538,0.159,0.1595,0.1767,0.1768,0.1907,0.1908,0,0,0,0,0,0,0,0,0,0,0,0.1536,0.1538,0.154,0.1595,0.1767,0.1768,0.1907,0.1796,0,0,0,0,0,0,0,0,0,0,0.1639,0.1605,0.1537,0.154,0.1596,0.1767,0.1768,0.1792,0.1803,0.1806,0,0.1846,0,0.1878,0.1916,0.1916,0,0,0,0.1594,0.1596,0.1638,0.154,0.1598,0.1766,0.1689,0.1799,0.1811,0.1821,0.1848,0.1854,0.188,0.1916,0.1917,0.2041,0.2041,0,0,0.1584,0.1569,0.163,0.1647,0.1659,0.1683,0.1694,0.1807,0.1828,0.1849,0.1858,0.1882,0.1917,0.1918,0.204,0.2041,0,0,0,0.1557,0.1562,0.1604,0.164,0.1678,0.1688,0.1701,0.1823,0.1837,0.186,0.1884,0.1918,0.1919,0.204,0.204,0.2077,0,0,0,0.1552,0.1547,0.1599,0.1592,0.1676,0.1765,0.1714,0.1829,0.1843,0.1883,0.1918,0.192,0.2039,0.204,0.2075,0.2105,0,0,0,0.1526,0.1544,0.1568,0.1591,0.1665,0.1764,0.1785,0.1833,0.1857,0.1916,0.1921,0.2039,0.204,0.2073,0.2101,0.2144,0,0,0,0.1497,0.153,0.1568,0.1619,0.1664,0.1757,0.1785,0.1867,0.192,0.1918,0.2039,0.204,0.2072,0.2099,0.2142,0.1878,0,0,0,0.1511,0.1532,0.1559,0.1597,0.1675,0.1732,0.1822,0.1906,0.1936,0.1994,0.1998,0.2075,0.2101,0.2144,0.1951,0,0,0,0,0.1544,0.1569,0.1599,0.1663,0.1733,0.182,0.1896,0.1941,0.2033,0.1975,0.209,0.2105,0.2131,0.1969,0.2046,0.2046,0.2046,0.2046,0.2046,0.1529,0.1574,0.1624,0.1696,0.1767,0.1888,0.1963,0.204,0.2055,0.2108,0.2145,0.2218,0.2049,0.2148,0.2149,0.2149,0.2149,0.2149,0.2149,0.1529,0.1548,0.1637,0.1705,0.1808,0.1903,0.2045,0.2095,0.2211,0.2198,0.222,0.2031,0.2153,0.2152,0.2152,0.2151,0.2151,0.2151,0.215,0.1488,0.1501,0.1569,0.1675,0.18,0.1933,0.205,0.2172,0.2255,0.2301,0.2138,0.2257,0.2243,0.2318,0.2318,0.2318,0.2319,0.2319,0.2319,0.1403,0.1468,0.1523,0.1647,0.1723,0.1867,0.2074,0.2145,0.226,0.217,0.2327,0.2275,0.227,0.2254,0.2324,0.2323,0.2323,0.2322,0.2322,0.1331,0.1381,0.1442,0.1512,0.1664,0.1738,0.1959,0.2038,0.2096,0.2079,0.2092,0.2102,0.207,0.207,0.2045,0.2057,0.2053,0.205,0,0.1271,0.1302,0.1371,0.1437,0.1504,0.1655,0.1674,0.1791,0.19,0.1836,0.2102,0.2113,0.2119,0.208,0.2075,0.2043,0,0,0,0.1226,0.1259,0.1274,0.1358,0.1415,0.1512,0.167,0.165,0.188,0.1861,0.1972,0.1992,0.2185,0.2339,0.2316,0.2309,0.2282,0,0]},{"header":{"parameterUnit":"m.s-1","parameterCategory":2,"la1":30.2992,"la2":30.254,"lo1":-89.0895,"lo2":-89.0443,"dy":0.0025,"dx":0.0025,"nx":19,"ny":19,"refTime":"2026-03-13T21:00:00:Z","depth":"4","parameterNumber":3,"parameterNumberName":"V-component_of_CURRENTS"},"data":[0,0,0,0.0157,0.0157,0.0133,0.0133,0.0084,0.0083,0,0,0,0,0,0,0,0,0,0,0,0.0165,0.0165,0.0157,0.0157,0.0133,0.0133,0.0084,0.0083,0,0,0,0,0,0,0,0,0,0,0,0.0165,0.0165,0.0165,0.0157,0.0133,0.0133,0.0084,0.0104,0,0,0,0,0,0,0,0,0,0,0.0129,0.0142,0.0165,0.0165,0.0157,0.0133,0.0133,0.0105,0.0103,0.0092,0,0.0094,0,0.0091,0.008,0.008,0,0,0,0.0148,0.0144,0.014,0.0165,0.0157,0.0133,0.0141,0.0104,0.0101,0.0089,0.0094,0.0092,0.009,0.008,0.008,0.0079,0.0079,0,0,0.015,0.0156,0.0142,0.0138,0.0158,0.0142,0.0141,0.0103,0.0101,0.0093,0.0091,0.0089,0.008,0.0079,0.0079,0.0079,0,0,0,0.0159,0.0157,0.0154,0.014,0.0139,0.0142,0.014,0.0103,0.0103,0.009,0.0089,0.0079,0.0079,0.0078,0.0079,0.0157,0,0,0,0.016,0.0163,0.0154,0.0157,0.014,0.0123,0.0141,0.0105,0.0101,0.0089,0.0079,0.0078,0.0078,0.0079,0.0154,0.02,0,0,0,0.0165,0.0164,0.0164,0.0158,0.0152,0.0124,0.0121,0.0104,0.01,0.008,0.0078,0.0078,0.0078,0.0152,0.0195,0.0214,0,0,0,0.0168,0.0183,0.0164,0.0185,0.0152,0.0166,0.0121,0.012,0.0108,0.0079,0.0078,0.0079,0.0151,0.0192,0.0211,0.0225,0,0,0,0.0192,0.0186,0.0201,0.0184,0.0216,0.0168,0.0196,0.0157,0.0114,0.0087,0.0087,0.0155,0.0195,0.0213,0.0269,0,0,0,0,0.0213,0.0226,0.0232,0.0245,0.0241,0.0247,0.0205,0.0185,0.016,0.0111,0.0148,0.0171,0.018,0.0179,0.0082,0.0082,0.0082,0.0082,0.0082,0.025,0.0259,0.0293,0.0304,0.0312,0.0299,0.0296,0.0259,0.021,0.0209,0.0229,0.0292,0.0295,0.0216,0.0216,0.0216,0.0217,0.0217,0.0217,0.0304,0.0328,0.0344,0.0381,0.0387,0.0406,0.0384,0.0356,0.034,0.029,0.0294,0.0256,0.0225,0.0223,0.0222,0.0221,0.0221,0.022,0.022,0.033,0.0345,0.0371,0.0429,0.0481,0.0487,0.0537,0.0499,0.0422,0.0431,0.0403,0.0341,0.0339,0.0426,0.0426,0.0426,0.0426,0.0427,0.0427,0.0343,0.0372,0.0426,0.0489,0.0542,0.0612,0.063,0.0618,0.0549,0.0501,0.0454,0.0362,0.0355,0.035,0.0431,0.0431,0.043,0.043,0.0429,0.0371,0.0389,0.0471,0.0531,0.0661,0.0715,0.0741,0.0701,0.068,0.0626,0.0521,0.0516,0.0486,0.0476,0.0473,0.0594,0.0595,0.0595,0,0.0386,0.0401,0.0517,0.0622,0.073,0.0779,0.0794,0.0772,0.0668,0.0654,0.065,0.0534,0.0528,0.0493,0.0485,0.0484,0,0,0,0.0407,0.0442,0.0525,0.0634,0.076,0.0789,0.0801,0.0772,0.0693,0.0674,0.0608,0.0605,0.0535,0.0445,0.0384,0.0376,0.0365,0,0]}]]